Maiduguri International Airport

Airport
ICAO code: 
DNMA
IATA Code: 
MIU
Summary
ICAO Region: 
AFI
Territory: 
Location: 
Alhaji Grema, Borno State
Serving: 
Maiduguri
Elevation: 
1099 ft
Coordinates: 
Aerial View: 
11° 51' 20.016" N, 13° 4' 54.984" E
Metar
Observation
DNMA 261700Z 07013KT CAVOK 27/09 Q1011
Station
Maiduguri
Date/Time
2022-01-26 17:00:00
Wind direction
70°
Wind speed
13 kts
Lowest cloud amount
clouds and visibility OK
Temperature
27°C
Dew point
9°C
Humidity
32%
QNH
1011 hPa
Weather condition
n/a

Maiduguri International Airport (IATA: MIU, ICAO: DNMA) is an airport serving Maiduguri, the capital of Borno State in Nigeria.

Climatology

Warm Steppe climate (Köppen climate classification BSh)

Runways

Designator Length Width Surface Rops
5/23 3001 60 ASP No/No
Airport map: 
Aerial View: 

SKYbrary Partners:

Safety knowledge contributed by: